User: anonymous   Login
Location: ????????
(54.9045°N, 39.1041°E)
Time: 17:44:15
(UTC+00:00)
Language:

GP-B - Orbit

View from above orbital plane
View from above orbital plane
View from above satellite
View from above satellite

Ground track
Ground track

The orbit data is extracted from the following two-line orbital elements,

1 28230U 04014A   24171.16436828  .00000997  00000-0  12713-3 0  9999
2 28230  89.8292  65.0811 0003046  75.2017 284.9544 14.80858235 87321
Epoch (UTC): 19 June 2024 03:56:41
Eccentricity: 0.0003046
inclination: 89.8292°
perigee height: 624 km
apogee height: 629 km
right ascension of ascending node: 65.0811°
argument of perigee: 75.2017°
revolutions per day: 14.80858235
mean anomaly at epoch: 284.9544°
orbit number at epoch: 8732

The dashed part of the orbit path shows where the satellite is in the earth's shadow,  

DLR